CCA4564 ZSOF-ZUCK

Flight info

Callsign CCA4564
Flight time N/A
Altitude 30100
Route IKUBA W50 XSH W80 IRPOG
Aircraft B77W/H-SDE1E2E3FGHIJ2J3J4J5M1RWXY/LB1D1

Departure

Time 2026-04-15 10:32
Airport Hefei Xinqiao International Airport (ZSOF)

Arrival

Time N/A
Airport Chongqing Jiangbei International Airport (ZUCK)
Time Latitude Longitude Altitude Speed Heading
2026-04-15 09:27 31.99004 116.96279 222 ft 0 kts 130°
2026-04-15 10:18 31.99005 116.96278 222 ft 2 kts 130°
2026-04-15 10:18 31.99014 116.96263 225 ft 2 kts 122°
2026-04-15 10:19 31.99022 116.96245 225 ft 2 kts 110°
2026-04-15 10:19 31.99027 116.96227 230 ft 2 kts 94°
2026-04-15 10:19 31.99026 116.96207 230 ft 2 kts 71°
2026-04-15 10:19 31.99018 116.96190 225 ft 2 kts 52°
2026-04-15 10:20 31.99008 116.96177 227 ft 1 kts 41°
2026-04-15 10:20 31.99005 116.96173 227 ft 0 kts 39°
2026-04-15 10:24 31.99005 116.96174 222 ft 0 kts 39°
2026-04-15 10:24 31.99011 116.96179 222 ft 2 kts 40°
2026-04-15 10:24 31.99022 116.96189 224 ft 2 kts 38°
2026-04-15 10:24 31.99038 116.96205 229 ft 3 kts 38°
2026-04-15 10:25 31.99059 116.96226 228 ft 5 kts 44°
2026-04-15 10:25 31.99084 116.96261 228 ft 7 kts 53°
2026-04-15 10:25 31.99111 116.96317 230 ft 9 kts 68°
2026-04-15 10:25 31.99156 116.96369 227 ft 10 kts 10°
2026-04-15 10:26 31.99225 116.96390 226 ft 11 kts 38°
2026-04-15 10:26 31.99274 116.96473 229 ft 13 kts 60°
2026-04-15 10:26 31.99323 116.96570 227 ft 15 kts 60°
2026-04-15 10:26 31.99378 116.96681 229 ft 16 kts 60°
2026-04-15 10:27 31.99439 116.96805 225 ft 18 kts 60°
2026-04-15 10:27 31.99463 116.96852 225 ft 5 kts 53°
2026-04-15 10:27 31.99496 116.96867 225 ft 6 kts 359°
2026-04-15 10:27 31.99539 116.96850 224 ft 8 kts 335°
2026-04-15 10:28 31.99592 116.96816 226 ft 10 kts 330°
2026-04-15 10:28 31.99656 116.96772 226 ft 12 kts 330°
2026-04-15 10:28 31.99732 116.96721 225 ft 14 kts 330°
2026-04-15 10:28 31.99820 116.96662 226 ft 15 kts 330°
2026-04-15 10:29 31.99918 116.96595 226 ft 17 kts 330°
2026-04-15 10:29 31.99998 116.96542 229 ft 9 kts 330°
2026-04-15 10:29 32.00055 116.96554 225 ft 10 kts 43°
2026-04-15 10:29 32.00068 116.96574 226 ft 2 kts 54°
2026-04-15 10:30 32.00079 116.96593 226 ft 4 kts 57°
2026-04-15 10:30 32.00097 116.96627 227 ft 6 kts 59°
2026-04-15 10:30 32.00120 116.96672 226 ft 7 kts 60°
2026-04-15 10:30 32.00143 116.96728 229 ft 8 kts 76°
2026-04-15 10:31 32.00121 116.96785 228 ft 8 kts 140°
2026-04-15 10:31 32.00095 116.96805 229 ft 0 kts 150°
2026-04-15 10:31 32.00093 116.96807 228 ft 1 kts 150°
2026-04-15 10:31 32.00009 116.96864 227 ft 42 kts 150°
2026-04-15 10:32 31.99485 116.97220 221 ft 129 kts 150°
2026-04-15 10:32 31.98526 116.97899 367 ft 180 kts 148°
2026-04-15 10:32 31.97444 116.98670 1158 ft 185 kts 148°
2026-04-15 10:32 31.96331 116.99437 2075 ft 184 kts 148°
2026-04-15 10:33 31.95220 117.00192 2901 ft 185 kts 148°
2026-04-15 10:33 31.94095 117.00947 3628 ft 189 kts 148°
2026-04-15 10:33 31.92881 117.01760 3998 ft 215 kts 149°
2026-04-15 10:33 31.91476 117.02695 4249 ft 249 kts 149°
2026-04-15 10:34 31.89913 117.03734 4924 ft 263 kts 149°
2026-04-15 10:34 31.88303 117.04798 5837 ft 269 kts 150°
2026-04-15 10:34 31.86665 117.05896 6741 ft 273 kts 150°
2026-04-15 10:34 31.85000 117.07021 7611 ft 279 kts 150°
2026-04-15 10:35 31.83299 117.08170 8456 ft 285 kts 151°
2026-04-15 10:35 31.81564 117.09341 9358 ft 290 kts 152°
2026-04-15 10:35 31.79800 117.10530 10201 ft 295 kts 152°
2026-04-15 10:35 31.77957 117.11770 10642 ft 319 kts 152°
2026-04-15 10:36 31.75940 117.13103 10839 ft 344 kts 156°
2026-04-15 10:36 31.73616 117.13847 11179 ft 359 kts 181°
2026-04-15 10:36 31.71167 117.13343 12041 ft 361 kts 205°
2026-04-15 10:36 31.69041 117.11823 13135 ft 357 kts 219°
2026-04-15 10:37 31.67059 117.10037 14138 ft 362 kts 220°
2026-04-15 10:37 31.65044 117.08235 15161 ft 365 kts 220°
2026-04-15 10:37 31.63004 117.06444 16256 ft 367 kts 220°
2026-04-15 10:37 31.61013 117.04559 17294 ft 367 kts 228°
2026-04-15 10:38 31.59378 117.02254 18263 ft 369 kts 235°
2026-04-15 10:38 31.57839 116.99823 19105 ft 373 kts 236°
2026-04-15 10:38 31.56286 116.97372 20008 ft 376 kts 236°
2026-04-15 10:38 31.54704 116.94916 20949 ft 378 kts 235°
2026-04-15 10:39 31.53100 116.92459 21815 ft 382 kts 235°
2026-04-15 10:39 31.51468 116.89984 22663 ft 386 kts 235°
2026-04-15 10:39 31.49813 116.87484 23483 ft 390 kts 235°
2026-04-15 10:39 31.48142 116.84965 24150 ft 394 kts 235°
2026-04-15 10:40 31.46461 116.82417 24837 ft 397 kts 235°
2026-04-15 10:40 31.44774 116.79836 25515 ft 400 kts 235°
2026-04-15 10:40 31.43081 116.77238 26227 ft 403 kts 235°
2026-04-15 10:40 31.41387 116.74640 27109 ft 400 kts 236°
2026-04-15 10:41 31.39707 116.72068 28102 ft 395 kts 236°
2026-04-15 10:41 31.38041 116.69519 29025 ft 393 kts 236°
2026-04-15 10:41 31.36382 116.66982 29834 ft 393 kts 236°
2026-04-15 10:41 31.34726 116.64452 30043 ft 392 kts 236°
2026-04-15 10:42 31.33070 116.61922 30044 ft 392 kts 236°
2026-04-15 10:42 31.29748 116.56855 30047 ft 393 kts 236°
2026-04-15 10:43 31.26415 116.51780 30051 ft 395 kts 236°
2026-04-15 10:43 31.23064 116.46684 30043 ft 395 kts 236°
2026-04-15 10:44 31.19737 116.41633 30044 ft 394 kts 236°
2026-04-15 10:44 31.16405 116.36579 30041 ft 392 kts 236°
2026-04-15 10:45 31.13084 116.31549 30050 ft 391 kts 236°
2026-04-15 10:45 31.09774 116.26540 30046 ft 389 kts 236°
2026-04-15 10:46 31.06471 116.21551 30044 ft 388 kts 236°
2026-04-15 10:46 31.03161 116.16555 30049 ft 390 kts 236°
2026-04-15 10:47 30.99840 116.11547 30041 ft 391 kts 236°
2026-04-15 10:47 30.96497 116.06511 30046 ft 393 kts 236°
2026-04-15 10:48 30.93144 116.01471 30043 ft 394 kts 236°
2026-04-15 10:48 30.89791 115.96438 30035 ft 393 kts 236°
2026-04-15 10:49 30.86442 115.91415 30037 ft 392 kts 236°
2026-04-15 10:49 30.83123 115.86412 30041 ft 390 kts 236°
2026-04-15 10:50 30.79829 115.81416 30053 ft 389 kts 236°
2026-04-15 10:50 30.76561 115.76461 30052 ft 388 kts 237°
2026-04-15 10:51 30.73252 115.71449 30028 ft 388 kts 237°
2026-04-15 10:51 30.69983 115.66504 30017 ft 387 kts 237°
2026-04-15 10:52 30.66680 115.61516 30039 ft 387 kts 237°
2026-04-15 10:52 30.63397 115.56563 30034 ft 387 kts 237°
2026-04-15 10:53 30.60132 115.51642 30032 ft 387 kts 237°
2026-04-15 10:53 30.56838 115.46685 30037 ft 388 kts 237°
2026-04-15 10:54 30.53542 115.41728 30037 ft 388 kts 237°
2026-04-15 10:54 30.50244 115.36774 30032 ft 388 kts 237°
2026-04-15 10:55 30.46946 115.31831 30018 ft 388 kts 237°
2026-04-15 10:55 30.45476 115.29262 30023 ft 379 kts 248°
2026-04-15 10:55 30.44605 115.26406 30027 ft 376 kts 257°
2026-04-15 10:56 30.44044 115.20410 30022 ft 376 kts 274°
2026-04-15 10:56 30.44692 115.14363 30030 ft 380 kts 275°
2026-04-15 10:57 30.45380 115.08266 30026 ft 383 kts 275°
2026-04-15 10:57 30.46362 114.99075 30017 ft 383 kts 275°
2026-04-15 10:58 30.46993 114.92966 30020 ft 381 kts 275°
2026-04-15 10:58 30.47615 114.86880 30013 ft 379 kts 275°
2026-04-15 10:59 30.48127 114.81839 30006 ft 378 kts 275°
2026-04-15 10:59 30.48843 114.74772 30010 ft 377 kts 275°
2026-04-15 11:00 30.49348 114.69753 30021 ft 377 kts 274°
2026-04-15 11:00 30.49954 114.63717 30017 ft 377 kts 274°
2026-04-15 11:01 30.50557 114.57674 30007 ft 377 kts 274°
2026-04-15 11:01 30.51159 114.51620 30007 ft 378 kts 274°
2026-04-15 11:02 30.51758 114.45572 30017 ft 378 kts 274°
2026-04-15 11:02 30.52354 114.39514 30011 ft 378 kts 274°
2026-04-15 11:03 30.52947 114.33462 30005 ft 378 kts 274°
2026-04-15 11:03 30.53538 114.27406 30004 ft 377 kts 274°
2026-04-15 11:04 30.54125 114.21360 30008 ft 377 kts 274°
2026-04-15 11:04 30.54698 114.15323 30006 ft 376 kts 274°
2026-04-15 11:05 30.55272 114.09287 30004 ft 376 kts 274°
2026-04-15 11:05 30.55859 114.03259 30001 ft 376 kts 274°
2026-04-15 11:06 30.56431 113.97230 30005 ft 376 kts 274°
2026-04-15 11:06 30.56988 113.91200 30003 ft 376 kts 274°
2026-04-15 11:07 30.57542 113.85171 30001 ft 375 kts 273°
2026-04-15 11:07 30.57599 113.79139 30001 ft 374 kts 267°
2026-04-15 11:08 30.57361 113.73109 30001 ft 374 kts 267°
2026-04-15 11:08 30.57128 113.67081 30000 ft 374 kts 267°
2026-04-15 11:09 30.56901 113.61099 30002 ft 374 kts 267°
2026-04-15 11:09 30.56671 113.55070 30000 ft 374 kts 267°
2026-04-15 11:10 30.56439 113.49047 30003 ft 374 kts 267°
2026-04-15 11:10 30.56205 113.43023 30004 ft 374 kts 267°
2026-04-15 11:11 30.55967 113.37002 30001 ft 374 kts 267°
2026-04-15 11:11 30.55727 113.30982 30001 ft 373 kts 267°
2026-04-15 11:12 30.55485 113.24964 30006 ft 373 kts 267°
2026-04-15 11:12 30.55240 113.18950 30005 ft 373 kts 267°
2026-04-15 11:13 30.54992 113.12941 30005 ft 373 kts 267°
2026-04-15 11:13 30.54743 113.06940 30006 ft 373 kts 267°
2026-04-15 11:14 30.54491 113.00932 30004 ft 373 kts 267°
2026-04-15 11:14 30.54238 112.94928 30006 ft 373 kts 267°
2026-04-15 11:15 30.53981 112.88920 30006 ft 373 kts 266°
2026-04-15 11:15 30.53720 112.82920 30005 ft 373 kts 266°
2026-04-15 11:16 30.53457 112.76919 30007 ft 373 kts 266°
2026-04-15 11:16 30.53192 112.70921 30008 ft 372 kts 267°
2026-04-15 11:17 30.52925 112.64924 30009 ft 372 kts 266°
2026-04-15 11:17 30.52655 112.58930 30014 ft 372 kts 266°
2026-04-15 11:18 30.52382 112.52944 30010 ft 372 kts 266°
2026-04-15 11:18 30.52107 112.46958 30014 ft 371 kts 266°
2026-04-15 11:19 30.51828 112.40974 30011 ft 372 kts 266°
2026-04-15 11:19 30.51550 112.35034 30011 ft 371 kts 266°
2026-04-15 11:20 30.51267 112.29056 30014 ft 371 kts 266°
2026-04-15 11:20 30.50981 112.23083 30014 ft 371 kts 266°
2026-04-15 11:21 30.50693 112.17114 30013 ft 371 kts 266°
2026-04-15 11:21 30.50402 112.11147 30012 ft 370 kts 266°
2026-04-15 11:22 30.50109 112.05188 30011 ft 370 kts 266°
2026-04-15 11:22 30.49813 111.99233 30010 ft 370 kts 266°
2026-04-15 11:23 30.49515 111.93282 30014 ft 370 kts 266°
2026-04-15 11:23 30.49214 111.87335 30016 ft 369 kts 266°
2026-04-15 11:24 30.48911 111.81390 30015 ft 369 kts 266°
2026-04-15 11:24 30.48758 111.78399 30331 ft 381 kts 266°
2026-04-15 11:24 30.48596 111.75258 30280 ft 399 kts 266°
2026-04-15 11:25 30.48426 111.71969 30223 ft 418 kts 266°
2026-04-15 11:25 30.48246 111.68542 30200 ft 434 kts 266°
2026-04-15 11:25 30.47865 111.61423 30124 ft 444 kts 266°
2026-04-15 11:26 30.47484 111.54347 30095 ft 436 kts 266°
2026-04-15 11:26 30.47044 111.47383 30093 ft 433 kts 262°
2026-04-15 11:27 30.46074 111.40418 30103 ft 441 kts 260°
2026-04-15 11:27 30.45094 111.33410 30098 ft 440 kts 261°
2026-04-15 11:28 30.44130 111.26427 30105 ft 438 kts 261°
2026-04-15 11:28 30.43159 111.19456 30114 ft 438 kts 261°
2026-04-15 11:29 30.42185 111.12496 30101 ft 438 kts 261°
2026-04-15 11:29 30.41208 111.05542 30101 ft 437 kts 261°
2026-04-15 11:30 30.40234 110.98631 30097 ft 438 kts 260°
2026-04-15 11:30 30.39249 110.91670 30103 ft 438 kts 260°
2026-04-15 11:31 30.38260 110.84704 30101 ft 438 kts 260°
2026-04-15 11:31 30.37266 110.77737 30110 ft 439 kts 260°
2026-04-15 11:32 30.36268 110.70764 30110 ft 439 kts 260°
2026-04-15 11:32 30.35267 110.63793 30110 ft 439 kts 260°
2026-04-15 11:33 30.34261 110.56824 30048 ft 439 kts 260°
2026-04-15 11:33 30.33753 110.53314 29580 ft 444 kts 260°
2026-04-15 11:33 30.33242 110.49791 29084 ft 443 kts 260°
2026-04-15 11:34 30.32733 110.46281 28589 ft 441 kts 260°
2026-04-15 11:34 30.32226 110.42795 28093 ft 439 kts 260°
2026-04-15 11:34 30.31718 110.39312 27602 ft 439 kts 260°
2026-04-15 11:34 30.31209 110.35831 27093 ft 438 kts 260°
2026-04-15 11:35 30.30701 110.32363 26618 ft 438 kts 260°
2026-04-15 11:35 30.30191 110.28883 26124 ft 440 kts 260°
2026-04-15 11:35 30.29675 110.25369 25628 ft 445 kts 260°
2026-04-15 11:35 30.29154 110.21832 25143 ft 447 kts 260°
2026-04-15 11:36 30.28634 110.18305 24632 ft 442 kts 260°
2026-04-15 11:36 30.28120 110.14828 24133 ft 435 kts 260°
2026-04-15 11:36 30.27615 110.11412 23743 ft 427 kts 260°
2026-04-15 11:36 30.27109 110.08005 23618 ft 432 kts 260°
2026-04-15 11:37 30.26603 110.04599 23600 ft 428 kts 260°